Station MHBT2 - 8775283 - Enbridge, Ingleside, TX Image indicating link to RSS feed of recent meteorological observations for station MHBT2


Conditions at MHBT2 as of
(3:30 am CDT)
0830 GMT on 05/29/2024:
     

Click on the graph icon in the table below to see a time series plot of the last five days of that observation.

5-day plot - Wind Direction Wind Direction (WDIR):SSW ( 200 deg true )
5-day plot - Wind Speed Wind Speed (WSPD): 4.1 kts
5-day plot - Wind Gust Wind Gust (GST): 5.1 kts
5-day plot - Atmospheric Pressure Atmospheric Pressure (PRES):30.01 in
5-day plot - Air Temperature Air Temperature (ATMP): 76.5 °F
5-day plot - Water Temperature Water Temperature (WTMP): 86.2 °F
5-day plot - Dew Point Dew Point (DEWP): 76.5 °F
5-day plot - Visibility Visibility (VIS): 5.9 nmi
5-day plot - Wind Speed at 10 Meters Wind Speed at 10 meters (WSPD10M): 3.9 kts
5-day plot - Wind Speed at 20 Meters Wind Speed at 20 meters (WSPD20M): 3.9 kts
5-day plot -  Wind Speed, Wind Gust and Atmospheric Pressure Combined plot of Wind Speed, Gust, and Air Pressure
NOS Water Level Observation Network Water Level
Previous observations
TIME
(CDT)
5-day plot - Wind Direction
WDIR
 
5-day plot - Wind Speed
WSPD
kts
5-day plot - Wind Gust
GST
kts
5-day plot - Wave Height
WVHT
ft
5-day plot - Dominant Wave Period
DPD
sec
5-day plot - Average Wave Period
APD
sec
5-day plot - Mean Wave Direction
MWD
 
5-day plot - Atmospheric Pressure
PRES
in
5-day plot - Pressure Tendency
PTDY
in
5-day plot - Air Temperature
ATMP
°F
5-day plot - Water Temperature
WTMP
°F
5-day plot - Dew Point
DEWP
°F
5-day plot - Salinity
SAL
psu
5-day plot - Visibility
VIS
nmi
5-day plot - Tide (above MLLW)
TIDE
ft
2024-05-29 03:24 am SW 2.9 5.1----30.01- 76.3 86.2 76.3- 5.9-
2024-05-29 03:18 am- 0.0 4.1----30.01- 76.6 86.2 76.6- 5.9-
2024-05-29 03:12 am SW 4.1 7.0----30.01- 75.7 85.8 75.7- 5.9-
2024-05-29 03:06 am SW 4.1 8.0----30.01- 75.4 86.2 75.4- 4.3-
2024-05-29 03:00 am SW 5.1 8.0----30.02- 75.0 86.2 75.0- 4.9-
2024-05-29 02:54 am SW 1.9 4.1----30.02- 75.0 86.4 75.0- 4.3-
2024-05-29 02:48 amNNE 2.9 7.0----30.03- 74.7 86.2 74.7- 4.9-
2024-05-29 02:42 amENE 5.1 8.0----30.04- 73.4 86.5 73.4- 4.9-
2024-05-29 02:36 am- 0.0 8.0----30.04- 74.3 86.5 74.3- 5.9-
2024-05-29 02:30 am SW 5.1 11.1----30.05- 74.3 86.4 74.3- 5.9-
2024-05-29 02:24 amWSW 8.0 19.0----30.06- 74.8 86.5 74.8- 1.2-
2024-05-29 02:18 amWSW 15.0 22.9----30.05- 74.8 86.4 74.8- 0.6-
2024-05-29 02:12 amWSW 17.1 31.1----30.05- 75.2 86.2 75.2- 0.8-
2024-05-29 02:06 am SW 13.0 26.0----30.05- 77.0 86.2 77.0- 1.1-
2024-05-29 02:00 am SW 6.0 11.1----30.07+0.09 81.7 86.4 81.5- 1.3-
2024-05-29 01:54 am SW 1.9 2.9----30.03- 82.0 86.0 82.0- 5.9-
2024-05-29 01:48 am SW 2.9 4.1----30.04- 82.0 86.0 82.0- 5.9-
2024-05-29 01:42 am SW 2.9 2.9----30.04- 82.4 86.2 82.4- 5.9-
2024-05-29 01:36 am- 0.0 2.9----30.03- 82.2 86.0 82.2- 5.9-
2024-05-29 01:30 am NE 1.9 2.9----30.01- 82.0 86.0 82.0- 5.9-
2024-05-29 01:24 am E 1.9 1.9----30.02- 82.0 85.8 82.0- 5.9-
2024-05-29 01:18 amESE 1.9 2.9----30.03- 82.2 85.8 82.2- 5.9-
2024-05-29 01:12 am SE 1.9 4.1----30.04- 82.2 85.8 82.2- 5.9-
2024-05-29 01:06 am SE 2.9 5.1----30.04- 82.2 85.8 82.2- 5.9-
2024-05-29 01:00 amSSE 2.9 4.1----30.04+0.13 82.6 86.0 82.6- 5.9-
2024-05-29 12:54 am SE 4.1 6.0----30.05- 82.6 86.0 82.6- 5.9-
2024-05-29 12:48 amESE 5.1 7.0----30.04- 82.8 86.0 82.8- 5.9-
2024-05-29 12:42 am SE 2.9 5.1----30.04- 82.9 86.0 82.9- 5.9-
2024-05-29 12:36 amESE 5.1 8.0----30.03- 82.8 86.0 82.8- 5.9-
2024-05-29 12:30 am E 2.9 7.0----30.03- 82.9 86.0 82.9- 5.9-
2024-05-29 12:24 am E 5.1 9.9----30.03- 82.9 86.0 82.9- 5.9-
2024-05-29 12:18 amENE 8.0 9.9----30.02- 82.8 85.8 82.8- 5.9-
2024-05-29 12:12 am E 8.0 11.1----30.02- 82.9 85.8 82.9- 5.9-
2024-05-29 12:06 am E 5.1 8.0----30.02- 83.1 85.8 83.1- 5.9-
2024-05-29 12:00 am--------- 83.3 85.8 83.1- 5.9-
2024-05-28 11:54 pm--------- 83.5 85.8 83.1- 5.9-
2024-05-28 11:48 pmESE 8.0 13.0----30.03- 83.7--- 5.9-
2024-05-28 11:42 pmESE 8.9 13.0----30.03- 83.7--- 5.9-
2024-05-28 11:36 pmESE 7.0 12.0----30.02- 83.5--- 5.9-
2024-05-28 11:30 pmESE 8.9 13.0----30.01- 83.3 86.0 83.3- 5.9-
2024-05-28 11:24 pmESE 6.0 15.0----30.00- 83.3 85.8 83.3- 5.9-
2024-05-28 11:18 pmESE 11.1 15.0----29.99- 82.9 85.8 82.9- 5.9-
2024-05-28 11:12 pmESE 9.9 18.1----29.98- 82.8 86.0 82.8- 5.9-
2024-05-28 11:06 pmESE 12.0 19.0----29.98- 82.8 85.8 82.8- 5.9-
2024-05-28 11:00 pmESE 12.0 19.0----29.97+0.10 82.8 85.8 82.8- 5.9-
2024-05-28 10:54 pmESE 11.1 19.0----29.97- 82.6 85.8 82.6- 5.9-
2024-05-28 10:48 pmESE 8.9 22.0----29.96- 82.8 85.8 82.8- 5.9-
2024-05-28 10:42 pmESE 15.0 21.0----29.96- 82.6 85.8 82.6- 5.9-
2024-05-28 10:36 pmESE 12.0 20.0----29.94- 82.6 85.8 82.6- 5.9-
2024-05-28 10:30 pm E 13.0 22.0----29.94- 82.4 85.8 82.4- 5.9-
2024-05-28 10:24 pmESE 12.0 19.0----29.93- 82.4 85.8 82.4- 5.9-
2024-05-28 10:18 pm E 14.0 21.0----29.92- 82.2 85.8 82.2- 5.9-
2024-05-28 10:12 pm E 12.0 17.1----29.92- 82.2 85.8 82.2- 5.9-
2024-05-28 10:06 pm E 15.0 24.1----29.92- 82.4 85.8 82.4- 5.9-
2024-05-28 10:00 pm E 12.0 22.9----29.91+0.07 82.4 85.8 82.4- 5.9-
2024-05-28 09:54 pm E 12.0 22.9----29.91- 82.4 85.8 82.4- 5.9-
2024-05-28 09:48 pmESE 15.9 22.0----29.90- 82.6 85.8 82.6- 5.9-
2024-05-28 09:42 pm E 9.9 22.0----29.90- 82.6 85.8 82.6- 5.9-
2024-05-28 09:36 pmESE 14.0 22.0----29.90- 82.2 85.8 82.2- 5.9-
2024-05-28 09:30 pm E 14.0 22.9----29.88- 82.0 85.8 82.0- 5.9-
2024-05-28 09:24 pm E 13.0 20.0----29.88- 82.0 86.0 82.0- 5.9-
2024-05-28 09:18 pm E 14.0 24.1----29.88- 82.0 85.8 82.0- 5.9-
2024-05-28 09:12 pm E 14.0 19.0----29.88- 82.0 85.8 82.0- 5.9-
2024-05-28 09:06 pm E 15.0 25.1----29.87- 82.0 85.8 82.0- 5.9-
2024-05-28 09:00 pm E 14.0 22.9----29.88+0.02 82.0 85.8 82.0- 5.9-
2024-05-28 08:54 pm E 13.0 22.0----29.88- 82.0 85.8 82.0- 5.9-
2024-05-28 08:48 pm E 13.0 22.0----29.88- 82.2 86.0 82.2- 5.9-
2024-05-28 08:42 pm E 17.1 24.1----29.88- 82.2 86.0 82.2- 5.9-
2024-05-28 08:36 pm E 13.0 22.0----29.88- 82.6 86.0 82.6- 5.9-
2024-05-28 08:30 pm E 15.0 22.0----29.88- 82.4 86.0 82.4- 5.9-
2024-05-28 08:24 pm E 15.0 22.0----29.89- 82.4 86.0 82.4- 5.9-
2024-05-28 08:18 pm E 15.0 21.0----29.89- 82.4 86.0 82.4- 5.9-
2024-05-28 08:12 pm E 17.1 25.1----29.88- 82.0 86.0 82.0- 5.9-
2024-05-28 08:06 pm E 15.0 20.0----29.88- 82.0 86.0 82.0- 5.9-
2024-05-28 08:00 pm E 14.0 24.1----29.87-0.01 82.0 86.0 82.0- 5.9-
2024-05-28 07:54 pm E 15.0 22.9----29.87- 81.7 86.0 81.7- 5.9-
2024-05-28 07:48 pm E 17.1 24.1----29.86- 81.7 86.0 81.7- 5.9-
2024-05-28 07:42 pmENE 15.0 22.9----29.87- 81.7 86.0 81.7- 5.9-
2024-05-28 07:36 pm E 18.1 24.1----29.87- 81.9 86.0 81.9- 5.9-
2024-05-28 07:30 pmENE 15.9 25.1----29.86- 81.9 86.2 81.9- 5.9-
2024-05-28 07:24 pm E 15.9 24.1----29.85- 82.2 86.2 82.2- 5.9-
2024-05-28 07:18 pm E 17.1 28.9----29.85- 82.4 86.0 82.4- 5.9-
2024-05-28 07:12 pm E 22.9 28.9----29.84- 82.0 85.8 82.0- 5.9-
2024-05-28 07:06 pm E 21.0 29.9----29.84- 82.2 85.8 82.2- 5.9-
2024-05-28 07:00 pm E 19.0 25.1----29.84-0.06 82.9 85.8 82.9- 5.9-
2024-05-28 06:54 pm E 13.0 21.0----29.84- 85.5 85.8 85.5- 5.9-
2024-05-28 06:48 pm E 14.0 22.9----29.85- 85.5 86.2 85.5- 5.9-
2024-05-28 06:42 pm E 15.0 22.9----29.85- 85.5 86.4 85.5- 5.9-
2024-05-28 06:36 pm E 17.1 20.0----29.86- 85.3 86.2 85.3- 5.9-
2024-05-28 06:30 pm E 12.0 21.0----29.86- 86.0 86.2 86.0- 5.9-
2024-05-28 06:24 pm E 15.9 22.0----29.85- 86.0 86.2 86.0- 5.9-
2024-05-28 06:18 pm E 9.9 20.0----29.85- 86.4 86.2 86.4- 5.9-
2024-05-28 06:12 pm E 11.1 22.0----29.85- 86.4 86.4 86.4- 5.9-
2024-05-28 06:06 pm E 9.9 17.1----29.85- 86.5 86.5 86.5- 5.9-
2024-05-28 06:00 pm E 9.9 18.1----29.85-0.05 86.4 86.5 86.4- 5.9-
2024-05-28 05:54 pm E 11.1 20.0----29.86- 86.4 86.5 86.4- 5.9-
2024-05-28 05:48 pm E 15.0 24.1----29.85- 85.8 86.5 85.8- 5.9-
2024-05-28 05:42 pm E 15.9 21.0----29.86- 85.8 86.5 85.8- 5.9-
2024-05-28 05:36 pm E 11.1 18.1----29.86- 86.4 86.5 86.4- 5.9-
2024-05-28 05:30 pm-------29.86-- 86.5-- 5.9-
2024-05-28 05:24 pm-------29.88-- 86.5-- 5.9-
2024-05-28 05:18 pm E 14.0 22.0----29.88- 86.4 86.4 86.4- 5.9-
2024-05-28 05:12 pm E 13.0 19.0----29.88- 86.9 86.2 86.9- 5.9-
2024-05-28 05:06 pm E 9.9 19.0----29.88- 87.3 86.0 87.3- 5.9-
2024-05-28 05:00 pm E 14.0 18.1----29.88-0.04- 85.8-- 5.9-
2024-05-28 04:54 pm E 11.1 17.1----29.88-- 85.6-- 5.9-
2024-05-28 04:48 pmENE 12.0 15.0----29.89-- 85.6-- 5.9-
2024-05-28 04:42 pm E 9.9 18.1----29.89-- 86.2-- 5.9-
2024-05-28 04:36 pm E 12.0 17.1----29.89-- 86.2-- 5.9-
2024-05-28 04:30 pm E 13.0 19.0---------- 5.9-
2024-05-28 04:24 pm E 15.0 18.1---------- 5.9-
2024-05-28 04:18 pm E 14.0 15.9----29.91-- 85.8-- 5.9-
2024-05-28 04:12 pm E 12.0 15.9----29.91-- 86.4-- 5.9-
2024-05-28 04:06 pm E 9.9 15.0----29.91-- 86.5-- 5.9-
2024-05-28 04:00 pm E 11.1 14.0----29.91-0.06- 86.4-- 5.9-
2024-05-28 03:54 pm E 8.9 14.0----29.91-- 86.4-- 5.9-
2024-05-28 03:48 pm E 9.9 12.0----29.91-- 86.4-- 5.9-
2024-05-28 03:42 pm E 6.0 11.1----29.91-- 86.0-- 5.9-
2024-05-28 03:36 pm E 8.9 11.1----29.91-- 86.0-- 5.9-
2024-05-28 03:30 pm E 8.0 9.9---------- 5.9-
2024-05-28 03:24 pmESE 6.0 9.9---------- 5.9-
2024-05-28 03:18 pmESE 7.0 9.9----29.91-- 86.4-- 5.9-
2024-05-28 03:12 pm E 5.1 8.9----29.91-- 86.2-- 5.9-
2024-05-28 03:06 pm SE 7.0 9.9----29.91-- 86.4-- 5.9-
2024-05-28 03:00 pm SE 5.1 9.9----29.90-0.05 88.0 86.2 88.0- 5.9-
2024-05-28 02:54 pm SE 7.0 9.9----29.90- 86.7 86.0 86.7- 5.9-
2024-05-28 02:48 pm SE 7.0 11.1----29.91- 87.3 86.2 87.3- 5.9-
2024-05-28 02:42 pm SE 8.0 11.1----29.91- 86.9 86.4 86.9- 5.9-
2024-05-28 02:36 pm SE 7.0 12.0----29.91- 87.1 86.4 87.1- 5.9-
2024-05-28 02:30 pm SE 7.0 12.0----29.91- 87.3 86.0 87.3- 5.9-
2024-05-28 02:24 pm SE 7.0 12.0----29.92- 87.4 86.0 87.4- 5.9-
2024-05-28 02:18 pmSSE 7.0 12.0----29.92- 87.1 86.0 87.1- 5.9-
2024-05-28 02:12 pm SE 8.0 12.0----29.92- 86.4 85.6 86.4- 5.9-
2024-05-28 02:06 pmESE 7.0 11.1----29.93- 87.4 85.6 87.4- 5.9-
2024-05-28 02:00 pmESE 7.0 11.1----29.93-0.01 87.3 86.4 87.3- 5.9-
2024-05-28 01:54 pmESE 8.0 11.1----29.93- 86.7 86.2 86.7- 5.9-
2024-05-28 01:48 pm SE 7.0 8.9----29.94- 87.8 86.0 87.8- 5.9-
2024-05-28 01:42 pmESE 6.0 9.9----29.95- 87.1 86.0 86.7- 5.9-
2024-05-28 01:36 pm SE 6.0 9.9----29.95- 87.4 86.2 85.8- 5.9-
2024-05-28 01:30 pm SE 7.0 9.9----29.96- 86.9 86.4 85.3- 5.9-
2024-05-28 01:24 pmESE 6.0 8.9----29.96- 87.4 86.4 85.6- 5.9-
2024-05-28 01:18 pmESE 7.0 9.9----29.96- 87.3 86.5 85.5- 5.9-
2024-05-28 01:12 pmESE 7.0 11.1----29.96- 87.1 86.5 85.5- 5.9-
2024-05-28 01:06 pmESE 8.0 9.9----29.96- 86.5 86.5 85.5- 5.9-
2024-05-28 01:00 pm E 6.0 8.9----29.96+0.05 86.9 86.5 86.0- 5.9-
2024-05-28 12:54 pmESE 7.0 9.9----29.96- 86.2 86.5 85.1- 5.9-
2024-05-28 12:48 pmESE 6.0 9.9----29.96- 86.7 86.5 85.3- 5.9-
2024-05-28 12:42 pm SE 6.0 9.9----29.96- 87.3 86.5 85.6- 5.9-
2024-05-28 12:36 pmESE 5.1 8.9----29.96- 87.6 86.5 85.8- 5.9-
2024-05-28 12:30 pm SE 8.0 11.1----29.95- 86.5 86.5 85.1- 5.9-
2024-05-28 12:24 pm SE 8.0 12.0----29.95- 86.4 86.5 84.9- 5.9-
2024-05-28 12:18 pmSSE 8.0 12.0----29.95- 86.5 86.5 85.5- 5.9-
2024-05-28 12:12 pm SE 9.9 13.0----29.95- 86.7 86.5 85.8- 5.9-
2024-05-28 12:06 pmSSE 8.0 12.0----29.95- 86.7 86.5 85.8- 5.9-
2024-05-28 12:00 pm SE 9.9 12.0----29.95+0.04 86.4 86.5 85.6- 5.9-
2024-05-28 11:54 amSSE 8.9 15.0----29.95- 86.5 86.4 86.2- 5.9-
2024-05-28 11:48 amSSE 12.0 14.0----29.95- 86.4 86.4 86.0- 5.9-
2024-05-28 11:42 amSSE 12.0 15.9----29.95- 86.0 86.4 86.0- 5.9-
2024-05-28 11:36 amSSE 11.1 14.0----29.95- 86.7 86.4 86.7- 5.9-
2024-05-28 11:30 amSSE 9.9 14.0----29.95- 86.5 86.4 86.5- 5.9-
2024-05-28 11:24 am SE 11.1 14.0----29.94- 86.4 86.4 86.4- 5.9-
2024-05-28 11:18 amSSE 11.1 15.0----29.94- 86.2 86.4 86.2- 5.9-
2024-05-28 11:12 amSSE 12.0 14.0----29.94- 85.8 86.4 85.8- 5.9-
2024-05-28 11:06 amSSE 9.9 14.0----29.94- 85.8 86.4 85.8- 5.9-
2024-05-28 11:00 am SE 9.9 13.0----29.94+0.03 86.0 86.4 86.0- 5.9-
2024-05-28 10:54 amSSE 6.0 14.0----29.93- 86.5 86.2 86.5- 5.9-
2024-05-28 10:48 amSSE 9.9 13.0----29.93- 85.6 86.2 85.6- 5.9-
2024-05-28 10:42 am SE 9.9 13.0----29.92- 85.6 86.2 85.6- 5.9-
2024-05-28 10:36 amSSE 7.0 12.0------ 86.0 86.2----
2024-05-28 10:30 am SE 8.9 13.0----29.92- 85.8 86.4 85.8- 5.9-
2024-05-28 10:24 am SE 8.0 13.0----29.91- 85.8 86.4 85.8- 5.9-
2024-05-28 10:18 amSSE 11.1 14.0----29.91- 85.3 86.4 85.3- 5.9-
2024-05-28 10:12 amSSE 11.1 14.0----29.91- 85.3 86.4 85.3- 5.9-
2024-05-28 10:06 amSSE 8.0 14.0----29.91- 86.0 86.4 86.0- 5.9-
2024-05-28 10:00 amSSE 11.1 15.0----29.91+0.01 85.8 86.4 85.8- 5.9-
2024-05-28 09:54 amSSE 12.0 15.0----29.92- 85.3 86.4 85.3- 5.9-
2024-05-28 09:48 amSSE 8.9 15.0----29.92- 85.6 86.4 85.6- 5.9-
2024-05-28 09:42 am S 8.9 14.0----29.92- 85.5 86.2 85.5- 5.9-
2024-05-28 09:36 amSSE 9.9 15.0----29.92- 85.3 86.2 85.3- 5.9-
2024-05-28 09:30 am S 11.1 14.0----29.92- 85.1 86.4 85.1- 5.9-
2024-05-28 09:24 am S 8.9 14.0----29.92- 85.3 86.2 85.3- 5.9-
2024-05-28 09:18 am S 8.9 14.0----29.92- 85.5 86.2 85.5- 5.9-
2024-05-28 09:12 am S 11.1 14.0----29.92- 84.9 86.2 84.9- 5.9-
2024-05-28 09:06 amSSE 6.0 13.0----29.92- 85.6 86.4 85.6- 5.9-
2024-05-28 09:00 am S 7.0 14.0----29.92+0.03 85.5 86.4 85.5- 5.9-
2024-05-28 08:54 am S 8.0 13.0----29.92- 85.1 86.4 85.1- 5.9-
2024-05-28 08:48 amSSE 8.0 12.0----29.92- 85.1 86.4 85.1- 5.9-
2024-05-28 08:42 am SE 8.0 13.0----29.91- 85.3 86.4 85.3- 5.9-
2024-05-28 08:36 am SE 8.9 12.0----29.91- 85.1 86.4 85.1- 5.9-
2024-05-28 08:30 amESE 7.0 12.0----29.91- 85.1 86.4 85.1- 5.9-
2024-05-28 08:24 amESE 7.0 11.1----29.91- 84.9 86.4 84.9- 5.9-
2024-05-28 08:18 amESE 6.0 9.9----29.91- 84.6 86.4 84.6- 5.9-
2024-05-28 08:12 amESE 8.0 12.0----29.91- 84.2 86.5 84.2- 5.9-
2024-05-28 08:06 amESE 6.0 9.9----29.91- 84.2 86.5 84.2- 5.9-
2024-05-28 08:00 amESE 6.0 11.1----29.91+0.08 84.2 86.5 84.2- 5.9-
2024-05-28 07:54 amESE 6.0 8.9----29.91- 84.0 86.4 84.0- 5.9-
2024-05-28 07:48 am E 8.0 11.1----29.91- 83.7 86.4 83.7- 5.9-
2024-05-28 07:42 am E 6.0 9.9----29.91- 83.7 86.4 83.7- 5.9-
2024-05-28 07:36 am E 6.0 9.9----29.91- 83.5 86.4 83.5- 5.9-
2024-05-28 07:30 am E 7.0 8.9----29.90- 83.5 86.4 83.5- 5.9-
2024-05-28 07:24 am E 5.1 8.9----29.90- 83.3 86.4 83.3- 5.9-
2024-05-28 07:18 am E 5.1 8.9----29.90- 83.3 86.4 83.3- 5.9-
2024-05-28 07:12 amESE 5.1 8.0----29.90- 83.3 86.4 83.3- 5.9-
2024-05-28 07:06 am E 5.1 8.0----29.90- 83.5 86.4 83.5- 5.9-
2024-05-28 07:00 amESE 7.0 9.9----29.90+0.09 83.5 86.4 83.5- 5.9-
2024-05-28 06:54 amESE 7.0 9.9----29.90- 83.5 86.4 83.5- 5.9-
2024-05-28 06:48 amESE 5.1 7.0----29.90- 83.3 86.4 83.3- 5.9-
2024-05-28 06:42 am SE 5.1 8.9----29.90- 83.3 86.4 83.3- 5.9-
2024-05-28 06:36 am SE 6.0 8.0----29.90- 83.3 86.4 83.3- 5.9-
2024-05-28 06:30 am SE 4.1 7.0----29.90- 83.5 86.4 83.3- 5.9-
2024-05-28 06:24 am SE 5.1 8.9----29.90- 83.7 86.4 82.9- 5.9-
2024-05-28 06:18 amESE 5.1 8.0----29.89- 83.7 86.5 82.9- 5.9-
2024-05-28 06:12 amESE 5.1 6.0----29.89- 83.5 86.4 82.8- 5.9-
2024-05-28 06:06 amESE 4.1 6.0----29.89- 83.3 86.2 82.4- 5.9-
2024-05-28 06:00 am SE 4.1 7.0----29.89+0.08 83.3 86.5 82.4- 5.9-
2024-05-28 05:54 am E 6.0 8.9----29.88- 83.5 86.5 82.4- 5.9-
2024-05-28 05:48 amENE 6.0 11.1----29.87- 83.3 86.5 81.9- 5.9-
2024-05-28 05:42 am E 8.9 12.0----29.86- 83.7 86.5 81.9- 5.9-
2024-05-28 05:36 amENE 8.9 14.0----29.85- 83.5 86.4 81.3- 5.9-
2024-05-28 05:30 am E 11.1 13.0----29.85- 83.7 86.4 80.8- 5.9-
2024-05-28 05:24 amENE 7.0 14.0----29.85- 83.7 86.4 80.1- 5.9-
2024-05-28 05:18 amENE 11.1 13.0----29.85- 83.8 86.5 80.1- 5.9-
2024-05-28 05:12 amENE 8.9 13.0----29.84- 84.2 86.4 80.2- 5.9-
2024-05-28 05:06 am E 11.1 13.0----29.83- 84.6 86.4 80.1- 5.9-
2024-05-28 05:00 amENE 9.9 13.0----29.83+0.00 84.2 86.4 78.4- 5.9-
2024-05-28 04:54 am NE 8.9 14.0----29.83- 84.7 86.4 77.9- 5.9-
2024-05-28 04:48 amENE 8.9 14.0----29.83- 85.5 86.4 76.5- 5.9-
2024-05-28 04:42 amENE 11.1 13.0----29.83- 85.8 86.4 77.0- 5.9-
2024-05-28 04:36 am NE 7.0 11.1----29.83- 84.6 86.4 76.3- 5.9-
2024-05-28 04:30 am N 8.0 12.0----29.83- 84.0 86.5 75.9- 5.9-
2024-05-28 04:24 amNNE 7.0 8.9----29.83- 84.2 86.5 75.4- 5.9-
2024-05-28 04:18 am NE 7.0 13.0----29.83- 84.7 86.5 77.2- 5.9-
2024-05-28 04:12 amENE 9.9 14.0----29.82- 84.7 86.4 79.2- 5.9-
2024-05-28 04:06 amNNE 8.9 14.0----29.82- 83.8 86.4 79.3- 5.9-
2024-05-28 04:00 am NE 8.0 12.0----29.81-0.16 83.8 86.4 79.9- 5.9-
2024-05-28 03:54 amENE 8.0 12.0----29.80- 84.2 86.4 80.2- 5.9-